Regional Weather Roundup
Issued by NWS State College, PA

Home | Current Version | Previous Version | Graphics & Text | Print | Product List | Glossary On
Versions: 1 2 3 4 5 6 7 8 9 10 11 12 13 14 15 16 17 18 19 20 21 22 23 24 25 26 27 28 29 30 31 32 33 34 35 36 37 38 39 40 41 42 43 44 45 46 47 48 49 50
000
ASUS41 KCTP 241110
RWRCTP

REGIONAL WEATHER ROUNDUP
NATIONAL WEATHER SERVICE STATE COLLEGE PA
700 AM EDT MON JUL 24 2017

Note: "fair" indicates few or no clouds below 12,000 feet with no
significant weather and/or obstructions to visibility.

* = STATION THAT DOES NOT REPORT PRECIPITATION /E.G. RAIN...SNOW...ETC/
    THUNDER OR FOG.

PAZ002>004-007>009-013>016-020>023-029>032-241200-
WESTERN PENNSYLVANIA

CITY           SKY/WX    TMP DP  RH WIND       PRES   REMARKS
ERIE           CLOUDY    70  65  84 W8        29.79S
MEADVILLE      NOT AVBL
FRANKLIN*      CLOUDY    66  63  88 W6        29.84R
NEW CASTLE     FAIR      66  65  96 SW3       29.85R
BEAVER COUNTY  CLOUDY    64  64 100 W7        29.86  FOG
BUTLER*        CLOUDY    66  64  94 W5        29.85R
PITTSBURGH INT MOCLDY    67  66  97 W6        29.85R
PITTSBURGH     CLOUDY    67  63  87 W8        29.86R
INDIANA*       CLOUDY    68  68 100 W6        29.88R FOG
LATROBE        CLOUDY    66  66 100 SW9       29.87R
WASHINGTON CO* CLOUDY    66  63  88 W6        29.87R
$$

PAZ004>006-010>012-017>019-024>028-033>037-041-042-045-046-049>053-241200-
CENTRAL PENNSYLVANIA

CITY           SKY/WX    TMP DP  RH WIND       PRES   REMARKS
BRADFORD       CLOUDY    66  66 100 VRB5      29.84R
DUBOIS         FOG       65  63  93 SW8       29.85R VSB 1/4
CLEARFIELD     CLOUDY    66  66 100 CALM      29.84R
JOHNSTOWN      MOCLDY    65  63  93 W8        29.88R
ALTOONA        CLOUDY    69  67  93 CALM      29.85R
STATE COLLEGE  MOCLDY    64  64 100 CALM      29.83R
WILLIAMSPORT   CLOUDY    68  67  96 W3        29.78R
SELINSGROVE    CLOUDY    68  67  96 N3        29.80R
FT INDIANTOWN  LGT RAIN  68  68  99 NE7       29.75S
CAPITAL CITY   CLOUDY    71  66  84 NW5       29.77R
HARRISBURG     CLOUDY    70  68  93 NW6       29.77R
YORK           MOCLDY    71  71 100 NW13      29.77R
$$

PAZ038>040-043-044-047-048-054-055-060>062-067>071-241200-
EASTERN PENNSYLVANIA

CITY           SKY/WX    TMP DP  RH WIND       PRES   REMARKS
SCRANTON       RAIN      66  64  93 NE6       29.80S FOG
MOUNT POCONO   LGT RAIN  63  63 100 NE12      29.81R FOG
ALLENTOWN      CLOUDY    70  66  87 CALM      29.74R
QUAKERTOWN*    CLOUDY    68  68 100 E6        29.76R
READING        HVY RAIN  70  70 100 S6        29.73R VSB 1/2
LANCASTER      CLOUDY    72  72 100 W10       29.75R
COATESVILLE    CLOUDY    70  70 100 CALM      29.77R FOG
POTTSTOWN      CLOUDY    70  70 100 VRB3      29.76R
BLUE BELL      CLOUDY    70  70 100 E3        29.76R
DOYLESTOWN     CLOUDY    69  69 100 VRB3      29.74R
WILLOW GROVE   NOT AVBL
NORTH PHILA    CLOUDY    74  71  91 E7        29.75R
PHILADELPHIA   CLOUDY    73  71  93 E5        29.74R
$$




USA.gov is the U.S. government's official web portal to all federal, state and local government web resources and services.